Weather History for Campo, CA

Change the Weather History Date:

Sunday, November 4, 2012

  Actual Average Record
Temperature  
Mean Temperature 62 °F 56 °F  
Max Temperature 81 °F 74 °F 92 °F (1988)
Min Temperature 43 °F 39 °F 18 °F (1956)
Degree Days  
Heating Degree Days 3 9  
Month to date heating degree days 31 35  
Since 1 July heating degree days 167 245  
Cooling Degree Days 0 0  
Month to date cooling degree days 0 0  
Year to date cooling degree days 942 839  
Growing Degree Days 12 (Base 50)    
Moisture  
Dew Point 23 °F    
Average Humidity 32    
Maximum Humidity 53    
Minimum Humidity 10    
Precipitation  
Precipitation 0.00 in 0.03 in 0.98 in (2011)
Month to date precipitation 0.00 0.12  
Year to date precipitation 7.81 12.45  
Since 1 July precipitation 1.76 2.30  
Snow  
Snow 0.00 in - - ()
Month to date snowfall 0.0  
Year to date snowfall 0.0  
Since 1 July snowfall 0.0  
Snow Depth 0.00 in    
Sea Level Pressure  
Sea Level Pressure 30.03 in    
Wind  
Wind Speed 9 mph (NE)    
Max Wind Speed 23 mph    
Max Gust Speed 30 mph    
T = Trace of Precipitation, MM = Missing Value Source: NWS Daily Summary

Daily Weather History Graph

Daily Weather History Graph

Search for Another Location

Airport:

Trip Planner

Search our weather history database for the weather conditions in past years. The results will help you decide how hot, cold, wet, or windy it might be!

Date:

Astronomy

Nov. 04, 2012 Rise Set
Actual Time 6:06 AM PST 4:52 PM PST
Civil Twilight 5:40 AM PST 5:17 PM PST
Nautical Twilight 5:11 AM PST 5:46 PM PST
Astronomical Twilight 4:42 AM PST 6:15 PM PST
Moon 9:36 PM PST (11/4) 10:49 AM PST (11/4)
Length of Visible Light 11h 36m
Length of Day
10h 45m
Waning Gibbous, 71% of the Moon is Illuminated
Nov 4
Waning Gibbous
Nov 6
Last Quarter
Nov 13
New
Nov 20
First Quarter
Nov 28
Full

Hourly Weather History & Observations

Time (PST) Temp. Windchill Dew Point Humidity Pressure Visibility Wind Dir Wind Speed Gust Speed Precip Events Conditions
12:52 AM 46.0 °F 43.1 °F 28.9 °F 51% 30.01 in - NE 5.8 mph - N/A   Unknown
1:52 AM 46.0 °F 41.9 °F 28.9 °F 51% 30.01 in - NE 8.1 mph - N/A   Unknown
1:52 AM 48.0 °F - 28.9 °F 48% 30.00 in - ENE 10.4 mph - N/A   Unknown
2:52 AM 55.0 °F - 30.0 °F 38% 29.99 in - Calm Calm - N/A   Unknown
3:52 AM 50.0 °F - 30.0 °F 46% 30.00 in - Calm Calm - N/A   Unknown
4:52 AM 45.0 °F - 28.0 °F 52% 30.02 in - Calm Calm - N/A   Unknown
5:52 AM 44.1 °F 42.5 °F 26.1 °F 49% 30.04 in - NE 3.5 mph - N/A   Unknown
6:52 AM 46.9 °F - 27.0 °F 46% 30.07 in - ENE 3.5 mph - N/A   Unknown
7:52 AM 59.0 °F - 30.9 °F 35% 30.08 in - Calm Calm - N/A   Unknown
8:52 AM 75.9 °F - 24.1 °F 15% 30.06 in - NE 13.8 mph 20.7 mph N/A   Unknown
9:52 AM 78.1 °F - 23.0 °F 13% 30.06 in - NE 16.1 mph 23.0 mph N/A   Unknown
10:52 AM 80.1 °F - 21.0 °F 11% 30.04 in - ENE 15.0 mph 20.7 mph N/A   Unknown
11:52 AM 79.0 °F - 23.0 °F 13% 30.02 in - ENE 15.0 mph 23.0 mph N/A   Unknown
12:52 PM 80.1 °F - 19.0 °F 10% 30.00 in - NE 17.3 mph 23.0 mph N/A   Unknown
1:52 PM 80.1 °F - 19.0 °F 10% 30.00 in - ENE 20.7 mph 28.8 mph N/A   Unknown
2:52 PM 79.0 °F - 18.0 °F 10% 29.99 in - NE 18.4 mph - N/A   Unknown
3:52 PM 77.0 °F - 17.1 °F 10% 30.00 in - NE 18.4 mph 23.0 mph N/A   Unknown
4:52 PM 73.0 °F - 19.0 °F 13% 30.03 in - NE 8.1 mph - N/A   Unknown
5:52 PM 61.0 °F - 19.0 °F 20% 30.06 in - ENE 5.8 mph - N/A   Unknown
6:52 PM 57.9 °F - 19.0 °F 22% 30.06 in - ENE 4.6 mph - N/A   Unknown
7:52 PM 50.0 °F - 19.0 °F 29% 30.06 in - NNE 3.5 mph - N/A   Unknown
8:52 PM 46.9 °F - 19.0 °F 33% 30.06 in - Variable 4.6 mph - N/A   Unknown
9:52 PM 48.0 °F - 19.9 °F 33% 30.06 in - Calm Calm - N/A   Unknown
10:52 PM 46.0 °F - 19.9 °F 35% 30.06 in - Calm Calm - N/A   Unknown